Weather History for LGIR - April, 2013

Change the Weather History Date:

Sunday, April 14, 2013

  Actual Average Record
Temperature  
Mean Temperature 64 °F -  
Max Temperature 73 °F 71 °F 91 °F (2008)
Min Temperature 56 °F 56 °F 48 °F (1997)
Growing Degree Days 14 (Base 50)    
Moisture  
Dew Point 54 °F    
Average Humidity 68    
Maximum Humidity 88    
Minimum Humidity 36    
Precipitation  
Precipitation 0.00 in 0.03 in - ()
Sea Level Pressure  
Sea Level Pressure 30.06 in    
Wind  
Wind Speed 7 mph ()    
Max Wind Speed 13 mph    
Max Gust Speed -    
Visibility 6.9 miles    
Events      
Averages and records for this station are not official NWS values.
T = Trace of Precipitation, MM = Missing Value Source: Averaged Metar Reports

Daily Weather History Graph

Daily Weather History Graph

Search for Another Location

Airport or City:

Trip Planner

Search our weather history database for the weather conditions in past years. The results will help you decide how hot, cold, wet, or windy it might be!

Date:

Astronomy

Apr. 14, 2013 Rise Set
Actual Time 6:48 AM EEST 7:51 PM EEST
Civil Twilight 6:22 AM EEST 8:17 PM EEST
Nautical Twilight 5:51 AM EEST 8:48 PM EEST
Astronomical Twilight 5:19 AM EEST 9:20 PM EEST
Moon 9:16 AM EEST (4/14) 11:42 PM EEST (4/14)
Length of Visible Light 13h 55m
Length of Day
13h 03m
Waxing Crescent, 15% of the Moon is Illuminated
Apr 14
Waxing Crescent
Apr 18
First Quarter
Apr 25
Full
May 2
Last Quarter
May 10
New

Hourly Weather History & Observations

Time (EEST) Temp. Dew Point Humidity Pressure Visibility Wind Dir Wind Speed Gust Speed Precip Events Conditions
12:50 AM 57.2 °F 50.0 °F 77% 30.12 in - South 5.8 mph - N/A   Clear
1:20 AM 57.2 °F 50.0 °F 77% 30.12 in - South 5.8 mph - N/A   Clear
1:50 AM 59.0 °F 51.8 °F 77% 30.09 in - SSW 4.6 mph - N/A   Clear
2:20 AM 59.0 °F 51.8 °F 77% 30.09 in - South 8.1 mph - N/A   Clear
2:50 AM 59.0 °F 50.0 °F 72% 30.09 in - South 6.9 mph - N/A   Clear
3:00 AM 58 °F 49 °F 65% 30.11 in 9 mi South 6.9 mph - -  
3:20 AM 59.0 °F 50.0 °F 72% 30.09 in - South 6.9 mph - N/A   Clear
3:50 AM 59.0 °F 50.0 °F 72% 30.09 in - South 10.4 mph - N/A   Clear
4:50 AM 57.2 °F 48.2 °F 72% 30.06 in - South 12.7 mph - N/A   Clear
5:20 AM 57.2 °F 48.2 °F 72% 30.06 in - South 8.1 mph - N/A   Clear
5:50 AM 59.0 °F 46.4 °F 63% 30.06 in - South 6.9 mph - N/A   Clear
6:20 AM 59.0 °F 46.4 °F 63% 30.06 in - South 9.2 mph - N/A   Clear
6:50 AM 57.2 °F 44.6 °F 63% 30.06 in - South 8.1 mph - N/A   Clear
7:20 AM 57.2 °F 44.6 °F 63% 30.06 in - South 8.1 mph - N/A   Clear
7:50 AM 60.8 °F 44.6 °F 55% 30.06 in 6.2 mi South 4.6 mph - N/A   Scattered Clouds
8:20 AM 60.8 °F 44.6 °F 55% 30.06 in 6.2 mi South 6.9 mph - N/A   Scattered Clouds
8:50 AM 66.2 °F 46.4 °F 49% 30.06 in 6.2 mi SSE 3.5 mph - N/A   Scattered Clouds
9:00 AM 67 °F 46 °F 36% 30.08 in 12 mi SSE 3.5 mph - -   Scattered Clouds
9:20 AM 69.8 °F 51.8 °F 53% 30.06 in - Variable 2.3 mph - N/A   Clear
9:50 AM 71.6 °F 53.6 °F 53% 30.06 in - NE 3.5 mph - N/A   Clear
10:20 AM 71.6 °F 53.6 °F 53% 30.06 in - NNE 4.6 mph - N/A   Clear
10:50 AM 73.4 °F 53.6 °F 50% 30.06 in - NNW 10.4 mph - N/A   Clear
11:20 AM 69.8 °F 51.8 °F 53% 30.06 in 6.2 mi NNW 11.5 mph - N/A   Partly Cloudy
11:50 AM 69.8 °F 51.8 °F 53% 30.06 in 6.2 mi NNW 9.2 mph - N/A   Scattered Clouds
12:20 PM 71.6 °F 55.4 °F 57% 30.06 in 6.2 mi ENE 5.8 mph - N/A   Mostly Cloudy
12:50 PM 69.8 °F 57.2 °F 64% 30.06 in 6.2 mi Variable 3.5 mph - N/A   Mostly Cloudy
1:20 PM 71.6 °F 59.0 °F 64% 30.06 in 6.2 mi Variable 1.2 mph - N/A   Mostly Cloudy
1:50 PM 69.8 °F 57.2 °F 64% 30.06 in 6.2 mi North 4.6 mph - N/A   Mostly Cloudy
2:20 PM 69.8 °F 57.2 °F 64% 30.06 in 6.2 mi North 4.6 mph - N/A   Mostly Cloudy
2:50 PM 69.8 °F 57.2 °F 64% 30.04 in - NNW 8.1 mph - N/A   Clear
3:00 PM 69 °F 57 °F 57% 30.06 in 12 mi NNW 8.1 mph - -   Clear
3:20 PM 69.8 °F 57.2 °F 64% 30.04 in - NNW 9.2 mph - N/A   Clear
3:50 PM 69.8 °F 59.0 °F 68% 30.04 in - NNW 11.5 mph - N/A   Clear
4:20 PM 69.8 °F 59.0 °F 68% 30.04 in - NNW 10.4 mph - N/A   Clear
4:50 PM 68.0 °F 59.0 °F 73% 30.04 in - North 8.1 mph - N/A   Clear
5:20 PM 68.0 °F 59.0 °F 73% 30.04 in - ENE 5.8 mph - N/A   Clear
5:50 PM 66.2 °F 59.0 °F 78% 30.04 in - NE 9.2 mph - N/A   Clear
6:20 PM 66.2 °F 59.0 °F 78% 30.04 in - North 9.2 mph - N/A   Clear
6:50 PM 64.4 °F 57.2 °F 77% 30.04 in 6.2 mi North 8.1 mph - N/A   Scattered Clouds
7:20 PM 64.4 °F 57.2 °F 77% 30.04 in 6.2 mi NNE 9.2 mph - N/A   Scattered Clouds
7:50 PM 64.4 °F 59.0 °F 83% 30.04 in 6.2 mi NNW 6.9 mph - N/A   Mostly Cloudy
8:20 PM 64.4 °F 59.0 °F 83% 30.04 in 6.2 mi North 6.9 mph - N/A   Mostly Cloudy
8:50 PM 62.6 °F 57.2 °F 82% 30.04 in 6.2 mi NW 11.5 mph - N/A   Scattered Clouds
9:00 PM 63 °F 57 °F 76% 30.04 in 6 mi NW 11.5 mph - -   Scattered Clouds
9:20 PM 62.6 °F 57.2 °F 82% 30.04 in 6.2 mi WNW 11.5 mph - N/A   Scattered Clouds
9:50 PM 62.6 °F 57.2 °F 82% 30.04 in - NW 6.9 mph - N/A   Clear
10:20 PM 62.6 °F 57.2 °F 82% 30.04 in - WNW 9.2 mph - N/A   Clear
10:50 PM 62.6 °F 57.2 °F 82% 30.04 in - West 6.9 mph - N/A   Clear
11:20 PM 60.8 °F 57.2 °F 88% 30.04 in - Variable 3.5 mph - N/A   Clear
11:50 PM 59.0 °F 55.4 °F 88% 30.04 in - SW 8.1 mph - N/A   Clear